This is the latest recevied weather packets stored in our database for station/object K4XP. If no packets are shown the sender has not sent any weather packets the latest 10 day(s).
| Time | Temp. | Humidity | Pressure | Rain* | Wind** | Luminosity | Snow |
|---|---|---|---|---|---|---|---|
| 1788637521 | 26.67° C | 76% | 1011.7 hPa | 0.51 mm | - | - | - |
| 1788637229 | 27.22° C | 74% | 1012.2 hPa | 0.51 mm | - | - | - |
| 1788636914 | 27.78° C | 73% | 1012.8 hPa | 0.25 mm | - | - | - |
| 1788636624 | 28.33° C | 73% | 1013.2 hPa | 0 mm | - | - | - |
| 1788636324 | 28.89° C | 69% | 1013 hPa | 0 mm | - | - | - |
| 1788636014 | 30° C | 66% | 1012.9 hPa | 0 mm | - | - | - |
| 1788635422 | 31.67° C | 61% | 1012.7 hPa | 0 mm | - | - | - |
| 1788635141 | 33.33° C | 61% | 1012.1 hPa | 0 mm | - | - | - |
| 1788634831 | 33.33° C | 59% | 1011.9 hPa | 0 mm | - | - | - |
| 1788634514 | 33.89° C | 59% | 1012.2 hPa | 0 mm | - | - | - |
| 1788634224 | 33.89° C | 58% | 1012.3 hPa | 0 mm | - | - | - |
| 1788633932 | 33.89° C | 58% | 1012.2 hPa | 0 mm | - | - | - |
| 1788633611 | 34.44° C | 58% | 1012.1 hPa | 0 mm | - | - | - |
| 1788633314 | 34.44° C | 56% | 1012 hPa | 0 mm | - | - | - |
| 1788633025 | 34.44° C | 55% | 1012.1 hPa | 0 mm | - | - | - |
| 1788632732 | 35° C | 54% | 1012.1 hPa | 0 mm | - | - | - |
| 1788632414 | 35.56° C | 51% | 1011.9 hPa | 0 mm | - | - | - |
| 1788632123 | 35.56° C | 52% | 1012 hPa | 0 mm | - | - | - |
| 1788631825 | 35.56° C | 52% | 1012.1 hPa | 0 mm | - | - | - |
| 1788631513 | 35.56° C | 54% | 1012.3 hPa | 0 mm | - | - | - |
| 1788631215 | 35.56° C | 54% | 1012.2 hPa | 0 mm | - | - | - |
| 1788630922 | 35° C | 55% | 1012.4 hPa | 0 mm | - | - | - |
| 1788630624 | 35° C | 54% | 1012.5 hPa | 0 mm | - | - | - |
| 1788630313 | 35° C | 55% | 1012.5 hPa | 0 mm | - | - | - |
| 1788630016 | 35° C | 56% | 1012.6 hPa | 0 mm | - | - | - |
* Rain latest hour (hover to see other rain measurements)
** Current wind speed in m/s (hover to see current wind gust speed)